Time,TemperatureF,DewpointF,PressureIn,WindDirection,WindDirectionDegrees,WindSpeedMPH,WindSpeedGustMPH,Humidity,HourlyPrecipIn,Conditions,Clouds,dailyrainin,SolarRadiationWatts/m^2,SoftwareType,DateUTC
2013-06-10 00:05:00,62.8,48.0,29.78,SE,134,4.0,5.0,59,0.00,,,0.00,0,weatherlink.com 1.10,2013-06-10 05:05:00,
2013-06-10 00:20:00,62.7,48.0,29.78,ESE,116,0.0,7.0,60,0.00,,,0.00,0,weatherlink.com 1.10,2013-06-10 05:20:00,
2013-06-10 00:35:00,61.7,48.0,29.78,ESE,111,0.0,6.0,62,0.00,,,0.00,0,weatherlink.com 1.10,2013-06-10 05:35:00,
2013-06-10 00:50:00,61.9,48.0,29.79,SE,132,0.0,8.0,61,0.00,,,0.00,0,weatherlink.com 1.10,2013-06-10 05:50:00,
2013-06-10 01:08:00,61.7,48.0,29.78,SSE,150,5.0,6.0,62,0.00,,,0.00,0,weatherlink.com 1.10,2013-06-10 06:08:00,
2013-06-10 01:20:00,61.5,48.0,29.77,SE,142,1.0,7.0,62,0.00,,,0.00,0,weatherlink.com 1.10,2013-06-10 06:20:00,
2013-06-10 01:35:00,61.6,48.0,29.77,ESE,114,0.0,6.0,62,0.00,,,0.00,0,weatherlink.com 1.10,2013-06-10 06:35:00,
2013-06-10 01:50:00,61.3,48.0,29.77,SE,139,3.0,8.0,63,0.00,,,0.00,0,weatherlink.com 1.10,2013-06-10 06:50:00,
2013-06-10 02:05:00,61.3,48.0,29.77,SSE,162,0.0,8.0,62,0.00,,,0.00,0,weatherlink.com 1.10,2013-06-10 07:05:00,
2013-06-10 02:20:00,61.4,48.0,29.76,SE,136,0.0,8.0,62,0.00,,,0.00,0,weatherlink.com 1.10,2013-06-10 07:20:00,
2013-06-10 02:35:00,60.8,48.0,29.75,SE,128,6.0,7.0,63,0.00,,,0.00,0,weatherlink.com 1.10,2013-06-10 07:35:00,
2013-06-10 02:50:00,60.8,48.0,29.75,SSE,163,0.0,9.0,63,0.00,,,0.00,0,weatherlink.com 1.10,2013-06-10 07:50:00,
2013-06-10 03:05:00,60.9,48.0,29.74,South,171,2.0,10.0,63,0.00,,,0.00,0,weatherlink.com 1.10,2013-06-10 08:05:00,
2013-06-10 03:20:00,60.9,48.0,29.74,South,178,1.0,9.0,63,0.00,,,0.00,0,weatherlink.com 1.10,2013-06-10 08:20:00,
2013-06-10 03:35:00,60.9,48.0,29.74,SE,124,3.0,7.0,63,0.00,,,0.00,0,weatherlink.com 1.10,2013-06-10 08:35:00,
2013-06-10 03:50:00,60.6,48.0,29.74,SE,139,3.0,8.0,63,0.00,,,0.00,0,weatherlink.com 1.10,2013-06-10 08:50:00,
2013-06-10 04:05:00,60.7,48.0,29.74,SSE,167,1.0,5.0,63,0.00,,,0.00,0,weatherlink.com 1.10,2013-06-10 09:05:00,
2013-06-10 04:20:00,61.3,48.0,29.74,South,180,0.0,9.0,62,0.00,,,0.00,0,weatherlink.com 1.10,2013-06-10 09:20:00,
2013-06-10 04:36:00,61.6,48.0,29.74,SE,140,0.0,9.0,61,0.00,,,0.00,0,weatherlink.com 1.10,2013-06-10 09:36:00,
2013-06-10 04:51:00,61.2,48.0,29.73,SSE,147,1.0,8.0,62,0.00,,,0.00,0,weatherlink.com 1.10,2013-06-10 09:51:00,
2013-06-10 05:06:00,61.2,47.0,29.73,ESE,117,2.0,11.0,61,0.00,,,0.00,0,weatherlink.com 1.10,2013-06-10 10:06:00,
2013-06-10 05:21:00,61.8,48.0,29.73,South,175,1.0,9.0,60,0.00,,,0.00,0,weatherlink.com 1.10,2013-06-10 10:21:00,
2013-06-10 05:36:00,61.1,48.0,29.73,South,169,0.0,10.0,62,0.00,,,0.00,0,weatherlink.com 1.10,2013-06-10 10:36:00,
2013-06-10 05:51:00,60.4,48.0,29.72,ESE,121,5.0,9.0,63,0.00,,,0.00,0,weatherlink.com 1.10,2013-06-10 10:51:00,
2013-06-10 06:06:00,60.3,48.0,29.72,SE,146,3.0,13.0,64,0.00,,,0.00,0,weatherlink.com 1.10,2013-06-10 11:06:00,
2013-06-10 06:21:00,61.6,48.0,29.72,ESE,121,4.0,11.0,61,0.00,,,0.00,7,weatherlink.com 1.10,2013-06-10 11:21:00,
2013-06-10 06:36:00,61.5,48.0,29.72,SE,128,6.0,10.0,61,0.00,,,0.00,12,weatherlink.com 1.10,2013-06-10 11:36:00,
2013-06-10 06:51:00,60.3,48.0,29.72,SSE,157,0.0,11.0,65,0.00,,,0.00,28,weatherlink.com 1.10,2013-06-10 11:51:00,
2013-06-10 07:36:00,61.7,50.0,29.71,SSE,155,2.0,11.0,65,0.00,,,0.00,155,weatherlink.com 1.10,2013-06-10 12:36:00,
2013-06-10 07:51:00,63.5,50.0,29.71,SSE,150,3.0,15.0,61,0.00,,,0.00,207,weatherlink.com 1.10,2013-06-10 12:51:00,
2013-06-10 08:06:00,64.9,50.0,29.70,ESE,103,4.0,14.0,59,0.00,,,0.00,253,weatherlink.com 1.10,2013-06-10 13:06:00,
2013-06-10 08:21:00,66.8,50.0,29.70,SE,144,7.0,11.0,56,0.00,,,0.00,281,weatherlink.com 1.10,2013-06-10 13:21:00,
2013-06-10 08:36:00,69.2,50.0,29.70,SSE,148,4.0,16.0,51,0.00,,,0.00,345,weatherlink.com 1.10,2013-06-10 13:36:00,
2013-06-10 08:51:00,70.5,50.0,29.68,SE,135,8.0,19.0,49,0.00,,,0.00,396,weatherlink.com 1.10,2013-06-10 13:51:00,
2013-06-10 09:06:00,71.5,50.0,29.69,SSE,157,3.0,20.0,47,0.00,,,0.00,441,weatherlink.com 1.10,2013-06-10 14:06:00,
2013-06-10 09:21:00,72.7,52.0,29.69,SSE,155,5.0,23.0,48,0.00,,,0.00,483,weatherlink.com 1.10,2013-06-10 14:21:00,
2013-06-10 09:37:00,72.8,52.0,29.70,SSE,167,4.0,22.0,49,0.00,,,0.00,527,weatherlink.com 1.10,2013-06-10 14:37:00,
2013-06-10 09:52:00,73.9,53.0,29.70,South,174,0.0,10.0,49,0.00,,,0.00,568,weatherlink.com 1.10,2013-06-10 14:52:00,
2013-06-10 10:07:00,74.8,55.0,29.69,SSE,164,6.0,12.0,50,0.00,,,0.00,613,weatherlink.com 1.10,2013-06-10 15:07:00,
2013-06-10 10:22:00,76.0,55.0,29.68,South,184,8.0,14.0,49,0.00,,,0.00,654,weatherlink.com 1.10,2013-06-10 15:22:00,
2013-06-10 10:37:00,77.9,57.0,29.67,SSE,157,3.0,17.0,49,0.00,,,0.00,691,weatherlink.com 1.10,2013-06-10 15:37:00,
2013-06-10 10:52:00,78.2,57.0,29.67,SSW,196,7.0,16.0,49,0.00,,,0.00,726,weatherlink.com 1.10,2013-06-10 15:52:00,
2013-06-10 11:07:00,79.6,58.0,29.67,SSE,168,2.0,17.0,48,0.00,,,0.00,761,weatherlink.com 1.10,2013-06-10 16:07:00,
2013-06-10 11:22:00,81.8,60.0,29.66,South,178,7.0,12.0,47,0.00,,,0.00,791,weatherlink.com 1.10,2013-06-10 16:22:00,
2013-06-10 11:37:00,83.6,60.0,29.66,South,182,3.0,8.0,45,0.00,,,0.00,819,weatherlink.com 1.10,2013-06-10 16:37:00,
2013-06-10 11:52:00,85.0,59.0,29.66,South,172,5.0,13.0,42,0.00,,,0.00,847,weatherlink.com 1.10,2013-06-10 16:52:00,
2013-06-10 12:07:00,86.5,60.0,29.65,South,171,0.0,15.0,41,0.00,,,0.00,868,weatherlink.com 1.10,2013-06-10 17:07:00,
2013-06-10 12:22:00,88.1,59.0,29.65,SSE,157,7.0,12.0,38,0.00,,,0.00,888,weatherlink.com 1.10,2013-06-10 17:22:00,
2013-06-10 12:37:00,89.4,60.0,29.64,SSE,166,4.0,10.0,37,0.00,,,0.00,905,weatherlink.com 1.10,2013-06-10 17:37:00,
2013-06-10 12:52:00,91.0,61.0,29.64,South,171,3.0,10.0,36,0.00,,,0.00,919,weatherlink.com 1.10,2013-06-10 17:52:00,
2013-06-10 13:07:00,91.8,61.0,29.64,South,177,3.0,11.0,36,0.00,,,0.00,930,weatherlink.com 1.10,2013-06-10 18:07:00,
2013-06-10 13:23:00,92.9,61.0,29.63,SSW,205,8.0,17.0,34,0.00,,,0.00,935,weatherlink.com 1.10,2013-06-10 18:23:00,
2013-06-10 13:38:00,93.7,61.0,29.63,South,178,3.0,16.0,34,0.00,,,0.00,949,weatherlink.com 1.10,2013-06-10 18:38:00,
2013-06-10 13:53:00,93.9,61.0,29.62,South,190,2.0,14.0,33,0.00,,,0.00,969,weatherlink.com 1.10,2013-06-10 18:53:00,
2013-06-10 14:08:00,95.1,61.0,29.62,SW,232,4.0,11.0,32,0.00,,,0.00,956,weatherlink.com 1.10,2013-06-10 19:08:00,
2013-06-10 14:23:00,96.0,61.0,29.61,SW,233,1.0,10.0,31,0.00,,,0.00,977,weatherlink.com 1.10,2013-06-10 19:23:00,
2013-06-10 14:38:00,96.4,61.0,29.61,WSW,238,4.0,12.0,31,0.00,,,0.00,896,weatherlink.com 1.10,2013-06-10 19:38:00,
2013-06-10 14:53:00,97.4,60.0,29.60,WSW,242,7.0,10.0,29,0.00,,,0.00,870,weatherlink.com 1.10,2013-06-10 19:53:00,
2013-06-10 15:08:00,98.0,61.0,29.60,South,190,2.0,11.0,29,0.00,,,0.00,865,weatherlink.com 1.10,2013-06-10 20:08:00,
2013-06-10 15:45:00,99.1,59.0,29.59,SW,216,2.0,8.0,26,0.00,,,0.00,547,weatherlink.com 1.10,2013-06-10 20:45:00,
2013-06-10 15:53:00,100.1,58.0,29.58,East,92,0.0,7.0,25,0.00,,,0.00,670,weatherlink.com 1.10,2013-06-10 20:53:00,
2013-06-10 16:08:00,100.0,54.0,29.58,SSW,197,0.0,7.0,21,0.00,,,0.00,671,weatherlink.com 1.10,2013-06-10 21:08:00,
2013-06-10 16:23:00,100.7,54.0,29.57,SSW,200,3.0,6.0,21,0.00,,,0.00,724,weatherlink.com 1.10,2013-06-10 21:23:00,
2013-06-10 16:38:00,101.6,52.0,29.56,South,186,5.0,6.0,19,0.00,,,0.00,719,weatherlink.com 1.10,2013-06-10 21:38:00,
2013-06-10 16:53:00,101.8,49.0,29.56,South,177,3.0,11.0,17,0.00,,,0.00,738,weatherlink.com 1.10,2013-06-10 21:53:00,
2013-06-10 17:08:00,101.7,48.0,29.56,South,173,2.0,7.0,16,0.00,,,0.00,721,weatherlink.com 1.10,2013-06-10 22:08:00,
2013-06-10 17:23:00,102.9,47.0,29.55,West,279,3.0,7.0,15,0.00,,,0.00,670,weatherlink.com 1.10,2013-06-10 22:23:00,
2013-06-10 17:38:00,102.6,50.0,29.55,West,259,1.0,7.0,17,0.00,,,0.00,471,weatherlink.com 1.10,2013-06-10 22:38:00,
2013-06-10 17:53:00,102.4,54.0,29.54,ESE,108,1.0,7.0,20,0.00,,,0.00,443,weatherlink.com 1.10,2013-06-10 22:53:00,
2013-06-10 18:08:00,102.1,51.0,29.54,South,179,1.0,7.0,18,0.00,,,0.00,555,weatherlink.com 1.10,2013-06-10 23:08:00,
2013-06-10 18:23:00,102.0,54.0,29.54,SSE,163,2.0,9.0,20,0.00,,,0.00,401,weatherlink.com 1.10,2013-06-10 23:23:00,
2013-06-10 18:38:00,101.8,52.0,29.54,South,182,3.0,10.0,19,0.00,,,0.00,410,weatherlink.com 1.10,2013-06-10 23:38:00,
2013-06-10 18:53:00,101.6,56.0,29.53,SE,132,7.0,13.0,22,0.00,,,0.00,359,weatherlink.com 1.10,2013-06-10 23:53:00,
2013-06-10 19:09:00,101.1,53.0,29.53,SE,132,4.0,11.0,20,0.00,,,0.00,239,weatherlink.com 1.10,2013-06-11 00:09:00,
2013-06-10 19:24:00,100.7,53.0,29.53,SE,139,5.0,10.0,20,0.00,,,0.00,218,weatherlink.com 1.10,2013-06-11 00:24:00,
2013-06-10 19:39:00,97.8,62.0,29.53,ESE,103,11.0,15.0,31,0.00,,,0.00,181,weatherlink.com 1.10,2013-06-11 00:39:00,
2013-06-10 19:54:00,95.1,63.0,29.53,ESE,105,1.0,14.0,35,0.00,,,0.00,95,weatherlink.com 1.10,2013-06-11 00:54:00,
2013-06-10 20:09:00,92.9,65.0,29.53,ESE,102,1.0,8.0,40,0.00,,,0.00,47,weatherlink.com 1.10,2013-06-11 01:09:00,
2013-06-10 20:24:00,91.4,65.0,29.52,ENE,65,3.0,9.0,42,0.00,,,0.00,26,weatherlink.com 1.10,2013-06-11 01:24:00,
2013-06-10 20:39:00,89.8,66.0,29.52,East,99,2.0,8.0,45,0.00,,,0.00,18,weatherlink.com 1.10,2013-06-11 01:39:00,
2013-06-10 20:54:00,88.2,67.0,29.51,East,90,7.0,13.0,49,0.00,,,0.00,7,weatherlink.com 1.10,2013-06-11 01:54:00,
2013-06-10 21:09:00,86.6,67.0,29.52,East,92,8.0,9.0,52,0.00,,,0.00,0,weatherlink.com 1.10,2013-06-11 02:09:00,
2013-06-10 21:24:00,85.2,67.0,29.52,East,94,8.0,9.0,55,0.00,,,0.00,0,weatherlink.com 1.10,2013-06-11 02:24:00,
2013-06-10 21:39:00,84.3,68.0,29.52,ENE,67,5.0,14.0,58,0.00,,,0.00,0,weatherlink.com 1.10,2013-06-11 02:39:00,
2013-06-10 21:54:00,83.8,68.0,29.52,ESE,108,8.0,13.0,59,0.00,,,0.00,0,weatherlink.com 1.10,2013-06-11 02:54:00,
2013-06-10 22:09:00,83.2,68.0,29.52,East,86,11.0,14.0,61,0.00,,,0.00,0,weatherlink.com 1.10,2013-06-11 03:09:00,
2013-06-10 22:24:00,82.7,68.0,29.52,ESE,103,5.0,17.0,62,0.00,,,0.00,0,weatherlink.com 1.10,2013-06-11 03:24:00,
2013-06-10 22:39:00,82.8,67.0,29.52,NE,42,3.0,15.0,60,0.00,,,0.00,0,weatherlink.com 1.10,2013-06-11 03:39:00,
2013-06-10 22:54:00,82.1,66.0,29.52,ESE,115,3.0,7.0,59,0.00,,,0.00,0,weatherlink.com 1.10,2013-06-11 03:54:00,
2013-06-10 23:09:00,81.7,65.0,29.54,East,92,0.0,6.0,58,0.00,,,0.00,0,weatherlink.com 1.10,2013-06-11 04:09:00,
2013-06-10 23:24:00,79.7,67.0,29.56,North,5,4.0,10.0,65,0.00,,,0.00,0,weatherlink.com 1.10,2013-06-11 04:24:00,
2013-06-10 23:39:00,80.6,68.0,29.56,NE,55,4.0,14.0,65,0.00,,,0.00,0,weatherlink.com 1.10,2013-06-11 04:39:00,
2013-06-10 23:54:00,82.3,65.0,29.57,ENE,78,3.0,11.0,56,0.00,,,0.00,0,weatherlink.com 1.10,2013-06-11 04:54:00,